Location: Regona
(45.2000°N, 9.8167°E)
Time: 02:32:49
(UTC+00:00)

STARLINK-32 - Pass Details

Date: 07 June 2020
Orbit: 434 x 435 km, 53.0° (Epoch: 05 July)

Event Time Altitude Azimuth Distance (km) Brightness Sun altitude
Exits shadow 00:45:12 - 117° (ESE) 1,627 6.0 -19.3°
Enters shadow 01:42:51 -70° 237° (WSW) 12,458 10.4 -14.6°
Maximum altitude 02:21:03 65° 144° (SE) 482 3.3 -10.5°
